Location: Roma
(41.9000°N, 12.4830°E)
Time: 06:39:16
(UTC+01:00)

ISS - Visible Passes

Search period start: 20 January 2019 00:00
Search period end: 30 January 2019 00:00
Orbit: 404 x 410 km, 51.6° (Epoch: 20 January)

Date Brightness Start Highest point End Pass type
(mag) Time Alt. Az. Time Alt. Az. Time Alt. Az.
20 Jan -0.8 19:34:34 10° SSW 19:34:52 12° SSW 19:34:52 12° SSW visible
21 Jan -2.3 18:43:45 10° SSW 18:46:04 24° SSE 18:46:04 24° SSE visible
22 Jan -1.6 17:53:36 10° SSE 17:55:19 14° SE 17:57:03 10° E visible
22 Jan -1.8 19:28:10 10° WSW 19:29:55 29° WSW 19:29:55 29° WSW visible
23 Jan -3.7 18:36:51 10° SW 18:40:05 62° SE 18:40:56 43° E visible
24 Jan -2.8 17:45:48 10° SSW 17:48:47 32° SE 17:51:47 10° ENE visible
24 Jan -2.1 19:22:14 10° W 19:24:36 31° NW 19:24:36 31° NW visible
25 Jan -3.4 18:30:34 10° WSW 18:33:48 56° NNW 18:35:27 25° NE visible
26 Jan -1.8 19:16:35 10° WNW 19:18:57 22° NNW 19:18:57 22° NNW visible
27 Jan -2.3 18:24:40 10° W 18:27:37 29° NNW 18:29:41 16° NNE visible
28 Jan -1.5 19:10:59 10° NW 19:13:05 17° NNW 19:13:05 17° NNW visible
29 Jan -1.8 18:19:00 10° WNW 18:21:31 20° NNW 18:23:44 11° NNE visible
